Weather History for KSKA - June, 2013

Change the Weather History Date:

Wednesday, June 5, 2013

  Actual Average Record
Temperature  
Mean Temperature 64 °F -  
Max Temperature 81 °F 65 °F 81 °F (2013)
Min Temperature 49 °F 45 °F 41 °F (2001)
Growing Degree Days 14 (Base 50)    
Moisture  
Dew Point 47 °F    
Average Humidity 51    
Maximum Humidity 86    
Minimum Humidity 29    
Precipitation  
Precipitation 0.00 in - - ()
Sea Level Pressure  
Sea Level Pressure 30.01 in    
Wind  
Wind Speed 5 mph (SSW)    
Max Wind Speed 15 mph    
Max Gust Speed 20 mph    
Visibility 10 miles    
Events      
Averages and records for this station are not official NWS values.
T = Trace of Precipitation, MM = Missing Value Source: NWS Daily Summary

Daily Weather History Graph

Daily Weather History Graph

Search for Another Location

Airport or City:

Trip Planner

Search our weather history database for the weather conditions in past years. The results will help you decide how hot, cold, wet, or windy it might be!

Date:

Astronomy

Jun. 05, 2013 Rise Set
Actual Time 4:54 AM PDT 8:44 PM PDT
Civil Twilight 4:14 AM PDT 9:24 PM PDT
Nautical Twilight 3:20 AM PDT 10:18 PM PDT
Astronomical Twilight 2:00 AM PDT 11:39 PM PDT
Moon 3:12 AM PDT (6/5) 6:06 PM PDT (6/5)
Length of Visible Light 17h 09m
Length of Day
15h 49m
Waning Crescent, 7% of the Moon is Illuminated
Jun 5
Waning Crescent
Jun 8
New
Jun 16
First Quarter
Jun 23
Full
Jun 29
Last Quarter

Hourly Weather History & Observations

Time (PDT) Temp. Dew Point Humidity Pressure Visibility Wind Dir Wind Speed Gust Speed Precip Events Conditions
12:58 AM 57.6 °F 47.3 °F 69% 30.06 in 10.0 mi WSW 2.3 mph - N/A   Clear
1:58 AM 55.2 °F 45.1 °F 69% 30.06 in 10.0 mi Calm Calm - N/A   Clear
2:58 AM 53.4 °F 45.9 °F 76% 30.05 in 10.0 mi NNE 1.2 mph - N/A   Clear
3:58 AM 53.4 °F 45.3 °F 74% 30.05 in 10.0 mi NE 3.5 mph - N/A   Clear
4:58 AM 49.8 °F 45.7 °F 86% 30.05 in 10.0 mi NE 4.6 mph - N/A   Mostly Cloudy
5:58 AM 51.6 °F 46.2 °F 82% 30.05 in 10.0 mi ENE 2.3 mph - N/A   Clear
6:58 AM 57.0 °F 47.8 °F 71% 30.06 in 10.0 mi NE 3.5 mph - N/A   Clear
7:58 AM 60.8 °F 48.0 °F 63% 30.05 in 10.0 mi East 3.5 mph - N/A   Clear
8:58 AM 65.7 °F 48.4 °F 54% 30.06 in 10.0 mi Variable 4.6 mph - N/A   Clear
9:58 AM 70.0 °F 48.7 °F 47% 30.06 in 10.0 mi Calm Calm - N/A   Clear
10:58 AM 73.4 °F 47.3 °F 39% 30.05 in 10.0 mi SSW 2.3 mph - N/A   Clear
11:58 AM 74.8 °F 46.2 °F 36% 30.05 in 10.0 mi Variable 2.3 mph - N/A   Clear
12:58 PM 76.3 °F 45.5 °F 33% 30.03 in 10.0 mi Variable 4.6 mph - N/A   Scattered Clouds
1:58 PM 77.5 °F 46.0 °F 33% 30.01 in 10.0 mi South 8.1 mph - N/A   Scattered Clouds
2:55 PM 78.8 °F 46.4 °F 32% 30.01 in 10.0 mi SW 11.5 mph - N/A   Partly Cloudy
2:58 PM 78.4 °F 46.4 °F 32% 29.99 in 10.0 mi SW 12.7 mph - N/A   Clear
3:58 PM 79.7 °F 46.6 °F 31% 29.97 in 10.0 mi SSW 15.0 mph 19.6 mph N/A   Partly Cloudy
4:58 PM 80.4 °F 45.0 °F 29% 29.97 in 10.0 mi SW 15.0 mph - N/A   Clear
5:58 PM 79.0 °F 47.5 °F 33% 29.96 in 10.0 mi SW 13.8 mph - N/A   Clear
6:58 PM 78.3 °F 46.2 °F 32% 29.94 in 10.0 mi SSW 10.4 mph - N/A   Clear
7:58 PM 73.0 °F 49.6 °F 44% 29.94 in 10.0 mi South 6.9 mph - N/A   Clear
8:58 PM 68.2 °F 48.2 °F 49% 29.94 in 10.0 mi South 6.9 mph - N/A   Clear
9:58 PM 65.7 °F 48.0 °F 53% 29.94 in 10.0 mi South 6.9 mph - N/A   Clear
10:58 PM 64.8 °F 47.8 °F 54% 29.94 in 10.0 mi SW 8.1 mph - N/A   Clear
11:58 PM 62.8 °F 48.6 °F 60% 29.94 in 10.0 mi South 4.6 mph - N/A   Clear